TimePDT,TemperatureF,Dew PointF,Humidity,Sea Level PressureIn,VisibilityMPH,Wind Direction,Wind SpeedMPH,Gust SpeedMPH,PrecipitationIn,Events,Conditions,WindDirDegrees,DateUTC
12:56 AM,51.1,44.1,77,30.09,10.0,Calm,Calm,-,N/A,,Clear,0,2013-03-29 07:56:00
1:56 AM,46.9,44.1,90,30.11,10.0,SE,4.6,-,N/A,,Clear,130,2013-03-29 08:56:00
2:56 AM,48.0,44.1,86,30.12,10.0,Calm,Calm,-,N/A,,Overcast,0,2013-03-29 09:56:00
3:56 AM,48.0,43.0,83,30.12,10.0,Calm,Calm,-,N/A,,Mostly Cloudy,0,2013-03-29 10:56:00
4:56 AM,46.9,44.1,90,30.14,10.0,Calm,Calm,-,N/A,,Overcast,0,2013-03-29 11:56:00
5:56 AM,46.9,44.1,90,30.15,10.0,Calm,Calm,-,N/A,,Mostly Cloudy,0,2013-03-29 12:56:00
6:56 AM,48.0,44.1,86,30.17,10.0,Calm,Calm,-,N/A,,Overcast,0,2013-03-29 13:56:00
7:56 AM,48.9,45.0,86,30.19,10.0,Calm,Calm,-,N/A,,Overcast,0,2013-03-29 14:56:00
8:56 AM,51.1,46.0,83,30.19,10.0,Calm,Calm,-,N/A,,Overcast,0,2013-03-29 15:56:00
9:56 AM,55.9,46.0,69,30.20,10.0,Calm,Calm,-,N/A,,Mostly Cloudy,0,2013-03-29 16:56:00
10:56 AM,57.9,46.9,67,30.20,10.0,Variable,3.5,-,N/A,,Mostly Cloudy,0,2013-03-29 17:56:00
11:56 AM,55.0,48.9,80,30.21,7.0,NW,12.7,-,0.01,Rain,Light Rain,320,2013-03-29 18:56:00
12:56 PM,54.0,48.0,80,30.21,10.0,SSE,8.1,-,0.00,,Overcast,160,2013-03-29 19:56:00
1:56 PM,57.9,46.9,67,30.20,10.0,SSW,6.9,-,N/A,,Mostly Cloudy,200,2013-03-29 20:56:00
2:56 PM,60.1,45.0,57,30.19,10.0,South,9.2,-,N/A,,Mostly Cloudy,180,2013-03-29 21:56:00
3:56 PM,61.0,45.0,56,30.17,10.0,South,9.2,-,N/A,,Mostly Cloudy,170,2013-03-29 22:56:00
4:56 PM,62.1,44.1,52,30.17,10.0,South,6.9,-,N/A,,Scattered Clouds,170,2013-03-29 23:56:00
5:56 PM,60.1,42.1,51,30.17,10.0,Calm,Calm,-,N/A,,Mostly Cloudy,0,2013-03-30 00:56:00
6:56 PM,57.9,44.1,60,30.17,10.0,South,4.6,-,N/A,,Overcast,190,2013-03-30 01:56:00
7:56 PM,55.9,43.0,62,30.18,10.0,South,4.6,-,N/A,,Overcast,170,2013-03-30 02:56:00
8:56 PM,54.0,43.0,66,30.19,10.0,SE,4.6,-,0.00,,Scattered Clouds,140,2013-03-30 03:56:00
9:56 PM,53.1,43.0,69,30.21,10.0,Calm,Calm,-,N/A,,Mostly Cloudy,0,2013-03-30 04:56:00
10:56 PM,50.0,43.0,77,30.22,10.0,SSW,4.6,-,N/A,,Mostly Cloudy,200,2013-03-30 05:56:00
11:56 PM,48.9,42.1,77,30.22,10.0,South,5.8,-,N/A,,Clear,190,2013-03-30 06:56:00